G1XOZ-13 Weather Reports


time (UTC)temp
C
wind
direction
speed
KPH
gust
KPH
rain 1hr
cm
rain 24hr
cm
rain mn
cm
humidity
%
barometer
mb
20260904230055 13 180 0.0 0.0 0.00 0.10 0.00 82 1023.4
20260904225543 12 180 1.6 1.6 0.00 0.10 0.10 83 1023.3
20260904225030 12 207 0.0 0.0 0.00 0.10 0.10 83 1023.3
20260904224518 12 204 1.6 1.6 0.00 0.10 0.10 82 1023.2
20260904224006 13 220 0.0 0.0 0.00 0.10 0.10 82 1023.3
20260904223453 13 222 0.0 0.0 0.00 0.10 0.10 82 1023.2
20260904222941 13 197 3.2 3.2 0.00 0.10 0.10 82 1023.3
20260904222428 13 203 0.0 0.0 0.00 0.10 0.10 82 1023.2
20260904221916 13 203 0.0 0.0 0.00 0.10 0.10 81 1023.2
20260904221403 13 203 0.0 0.0 0.00 0.10 0.10 81 1023.2
20260904220851 13 216 0.0 0.0 0.00 0.10 0.10 80 1023.1
20260904220338 13 217 0.0 0.0 0.00 0.10 0.10 80 1023.1
20260904215826 13 192 1.6 1.6 0.00 0.10 0.10 80 1023.1
20260904215313 13 184 3.2 3.2 0.00 0.10 0.10 79 1023.1
20260904214801 14 170 0.0 0.0 0.00 0.10 0.10 78 1023.0
20260904214248 14 170 0.0 0.0 0.00 0.10 0.10 77 1023.1
20260904213736 14 44 3.2 3.2 0.00 0.10 0.10 77 1022.9
20260904213223 14 42 0.0 0.0 0.00 0.10 0.10 77 1022.9
20260904212711 14 36 1.6 1.6 0.00 0.10 0.10 77 1022.8
20260904212158 14 107 0.0 0.0 0.00 0.10 0.10 77 1022.8
20260904211646 14 204 0.0 0.0 0.00 0.10 0.10 77 1022.9
20260904211133 14 176 1.6 1.6 0.00 0.10 0.10 77 1022.7
20260904210621 14 175 0.0 0.0 0.00 0.10 0.10 76 1022.6
20260904210108 14 197 0.0 0.0 0.00 0.10 0.10 77 1022.6
20260904205556 15 198 3.2 3.2 0.00 0.10 0.10 76 1022.6
20260904205043 15 158 0.0 0.0 0.00 0.10 0.10 76 1022.4
20260904204531 15 164 0.0 0.0 0.00 0.10 0.10 77 1022.5
20260904204018 15 79 1.6 1.6 0.00 0.10 0.10 76 1022.5
20260904203506 15 50 1.6 1.6 0.00 0.10 0.10 76 1022.5
20260904202953 15 120 1.6 1.6 0.00 0.10 0.10 76 1022.4
20260904202441 15 44 3.2 3.2 0.00 0.10 0.10 76 1022.4
20260904201928 15 36 1.6 1.6 0.00 0.10 0.10 76 1022.5
20260904201416 15 60 0.0 0.0 0.00 0.10 0.10 76 1022.5
20260904200903 15 54 0.0 0.0 0.00 0.10 0.10 76 1022.4
20260904200350 15 40 1.6 1.6 0.00 0.10 0.10 76 1022.3
20260904195838 15 56 1.6 1.6 0.00 0.10 0.10 76 1022.3
20260904195325 15 306 0.0 0.0 0.00 0.10 0.10 76 1022.4
20260904194813 15 36 0.0 0.0 0.00 0.10 0.10 76 1022.4
20260904194300 15 30 1.6 1.6 0.00 0.10 0.10 76 1022.2
20260904193748 15 24 0.0 0.0 0.00 0.10 0.10 75 1022.1
20260904193235 15 24 0.0 0.0 0.00 0.10 0.10 75 1022.1
20260904192723 15 40 0.0 0.0 0.00 0.10 0.10 74 1022.0
20260904192210 15 40 0.0 0.0 0.00 0.10 0.10 73 1022.0
20260904191658 15 54 0.0 0.0 0.00 0.10 0.10 73 1022.0
20260904191145 15 30 0.0 0.0 0.00 0.10 0.10 72 1022.0
20260904190633 16 147 0.0 0.0 0.00 0.10 0.10 72 1021.8
20260904190120 16 115 1.6 1.6 0.00 0.10 0.10 71 1021.9
20260904185608 16 18 3.2 3.2 0.00 0.10 0.10 71 1021.8
20260904185055 16 54 3.2 3.2 0.00 0.10 0.10 70 1021.8
20260904184543 16 30 3.2 3.2 0.00 0.10 0.10 70 1021.7
20260904184030 16 36 3.2 3.2 0.00 0.10 0.10 70 1021.7
20260904183518 16 0 8.0 8.0 0.00 0.10 0.10 70 1021.7
20260904183005 16 42 6.4 6.4 0.00 0.10 0.10 70 1021.6
20260904182453 16 24 6.4 8.0 0.00 0.10 0.10 70 1021.6
20260904181940 16 120 6.4 6.4 0.00 0.10 0.10 69 1021.7
20260904181428 17 30 6.4 6.4 0.00 0.10 0.10 69 1021.6
20260904180915 17 30 6.4 6.4 0.00 0.10 0.10 69 1021.5
20260904180402 17 24 3.2 3.2 0.00 0.10 0.10 68 1021.4
20260904175850 17 42 3.2 3.2 0.00 0.10 0.10 67 1021.4
20260904175337 17 30 3.2 3.2 0.00 0.10 0.10 67 1021.2
20260904174825 17 29 1.6 1.6 0.00 0.10 0.10 67 1021.2
20260904174312 17 24 3.2 3.2 0.00 0.10 0.10 66 1021.2
20260904173800 17 156 3.2 3.2 0.00 0.10 0.10 66 1021.3
20260904173247 17 35 3.2 3.2 0.00 0.10 0.10 66 1021.2
20260904172735 17 150 1.6 1.6 0.00 0.10 0.10 65 1021.2
20260904172222 17 18 3.2 3.2 0.00 0.10 0.10 66 1021.1
20260904171710 17 6 6.4 6.4 0.00 0.10 0.10 65 1021.2
20260904171157 17 49 3.2 3.2 0.00 0.10 0.10 64 1021.0
20260904170645 17 99 3.2 3.2 0.00 0.10 0.10 64 1020.9
20260904170132 17 12 3.2 3.2 0.00 0.10 0.10 64 1021.2
20260904165620 17 42 3.2 3.2 0.00 0.10 0.10 64 1021.1
20260904165107 17 46 3.2 3.2 0.00 0.10 0.10 64 1021.0
20260904164556 17 18 4.8 4.8 0.00 0.10 0.10 63 1020.9
20260904164042 17 0 3.2 3.2 0.00 0.10 0.10 63 1020.8
20260904163530 17 42 3.2 3.2 0.00 0.10 0.10 62 1020.8
20260904163017 17 22 3.2 3.2 0.00 0.10 0.10 62 1020.6
20260904162505 17 66 0.0 0.0 0.00 0.10 0.10 62 1020.7
20260904161952 17 12 3.2 3.2 0.00 0.10 0.10 62 1020.8
20260904161440 17 57 9.7 9.7 0.00 0.10 0.10 62 1020.7
20260904160927 17 17 6.4 6.4 0.00 0.10 0.10 62 1020.7
20260904160415 17 55 0.0 0.0 0.00 0.10 0.10 63 1020.6
20260904155902 17 18 3.2 3.2 0.00 0.10 0.10 63 1020.7
20260904155350 17 348 3.2 3.2 0.00 0.10 0.10 62 1020.6
20260904154837 18 22 6.4 6.4 0.00 0.10 0.10 62 1020.7
20260904154325 18 6 3.2 3.2 0.00 0.10 0.10 62 1020.6
20260904153812 18 348 3.2 3.2 0.00 0.10 0.10 62 1020.5
20260904153300 18 38 6.4 6.4 0.00 0.10 0.10 63 1020.5
20260904152748 18 28 9.7 9.7 0.00 0.10 0.10 62 1020.6
20260904152235 18 350 8.0 9.7 0.00 0.10 0.10 62 1020.3
20260904151722 18 40 8.0 8.0 0.00 0.10 0.10 61 1020.4
20260904151210 18 46 6.4 6.4 0.00 0.10 0.10 61 1020.4
20260904150659 18 37 4.8 4.8 0.00 0.10 0.10 60 1020.5
20260904150145 18 29 8.0 8.0 0.00 0.10 0.10 60 1020.4
20260904145633 18 5 3.2 3.2 0.00 0.10 0.10 60 1020.2
20260904145120 18 30 0.0 0.0 0.00 0.10 0.10 60 1020.2
20260904144607 18 24 3.2 3.2 0.00 0.10 0.10 59 1020.2
20260904144055 18 38 6.4 6.4 0.00 0.10 0.10 58 1020.2
20260904143542 18 21 6.4 6.4 0.00 0.10 0.10 58 1020.1
20260904143030 18 42 4.8 4.8 0.00 0.10 0.10 58 1019.9
20260904142517 18 350 3.2 3.2 0.00 0.10 0.10 58 1020.0
20260904142005 18 6 12.9 12.9 0.00 0.10 0.10 58 1020.1
20260904141452 18 24 9.7 9.7 0.00 0.10 0.10 59 1020.0
20260904140939 18 18 4.8 4.8 0.00 0.10 0.10 59 1019.9
20260904140427 18 37 8.0 9.7 0.00 0.10 0.10 60 1019.8
20260904135914 18 359 3.2 3.2 0.00 0.10 0.10 63 1019.7
20260904135403 18 37 6.4 6.4 0.00 0.10 0.10 64 1019.7
20260904134849 18 354 4.8 4.8 0.00 0.10 0.10 64 1019.7
20260904134337 18 322 3.2 3.2 0.00 0.10 0.10 64 1019.7
20260904133824 18 10 9.7 11.3 0.00 0.10 0.10 64 1019.6
20260904133312 18 66 6.4 8.0 0.00 0.10 0.10 61 1019.7
20260904132759 18 28 6.4 6.4 0.00 0.10 0.10 60 1019.6
20260904132247 18 358 9.7 11.3 0.00 0.10 0.10 62 1019.6
20260904131734 18 30 6.4 6.4 0.00 0.10 0.10 63 1019.5
20260904131222 18 24 6.4 6.4 0.00 0.10 0.10 64 1019.6
20260904130709 18 6 3.2 3.2 0.00 0.10 0.10 64 1019.4
20260904130156 18 354 11.3 12.9 0.00 0.10 0.10 63 1019.4
20260904125644 18 38 6.4 8.0 0.00 0.10 0.10 63 1019.4
20260904125131 18 336 6.4 6.4 0.00 0.10 0.10 65 1019.3
20260904124619 18 348 6.4 8.0 0.00 0.10 0.10 65 1019.2
20260904123041 18 15 6.4 8.0 0.00 0.10 0.10 63 1019.1
20260904120951 18 324 4.8 4.8 0.00 0.10 0.10 68 1019.0
20260904120438 18 10 3.2 3.2 0.00 0.10 0.10 67 1018.9
20260904115926 18 36 6.4 6.4 0.00 0.10 0.10 66 1019.0
20260904115413 18 15 9.7 9.7 0.00 0.10 0.10 67 1018.9
20260904114901 18 24 8.0 9.7 0.00 0.10 0.10 69 1018.7
20260904114348 18 4 6.4 6.4 0.00 0.10 0.10 68 1018.7
20260904113836 18 344 6.4 6.4 0.00 0.10 0.10 69 1018.8
20260904113323 18 24 8.0 9.7 0.00 0.10 0.10 70 1018.7
20260904112811 18 32 6.4 6.4 0.00 0.10 0.10 71 1018.5
20260904104118 18 29 3.2 3.2 0.00 0.10 0.10 70 1018.0
20260904103052 18 29 3.2 3.2 0.00 0.10 0.10 73 1017.7
20260904102540 18 18 6.4 6.4 0.00 0.10 0.10 74 1017.8
20260904102027 18 36 3.2 3.2 0.00 0.10 0.10 74 1017.7
20260904101515 18 22 6.4 6.4 0.00 0.10 0.10 75 1017.8
20260904101003 18 17 4.8 4.8 0.00 0.10 0.10 75 1017.8
20260904100450 18 21 6.4 6.4 0.00 0.10 0.10 74 1017.5
20260904095937 18 22 8.0 9.7 0.00 0.10 0.10 75 1017.7
20260904095425 18 354 6.4 6.4 0.00 0.10 0.10 74 1017.6
20260904094912 18 18 6.4 8.0 0.00 0.10 0.10 75 1017.5
20260904094400 18 0 3.2 3.2 0.00 0.10 0.10 75 1017.5
20260904093847 18 11 3.2 3.2 0.00 0.10 0.10 75 1017.7
20260904093335 18 348 6.4 6.4 0.00 0.10 0.10 74 1017.5
20260904092823 18 27 3.2 3.2 0.00 0.10 0.10 75 1017.5
20260904092310 18 16 1.6 1.6 0.00 0.10 0.10 75 1017.4
20260904091758 18 22 6.4 6.4 0.00 0.10 0.10 75 1017.2
20260904091245 18 5 6.4 6.4 0.00 0.10 0.10 75 1017.2
20260904090733 18 48 3.2 3.2 0.00 0.10 0.10 77 1017.1
20260904090220 18 5 6.4 6.4 0.00 0.10 0.10 77 1016.9
20260904085707 18 33 6.4 6.4 0.00 0.10 0.10 77 1016.9
20260904085155 18 348 3.2 3.2 0.00 0.10 0.10 78 1016.8
20260904084643 18 21 3.2 3.2 0.00 0.10 0.10 78 1016.7
20260904082553 17 4 4.8 4.8 0.00 0.10 0.10 85 1016.5
20260904082040 17 17 1.6 1.6 0.00 0.10 0.10 85 1016.5
20260904081527 17 18 1.6 1.6 0.00 0.10 0.10 85 1016.6
20260904081015 17 42 6.4 6.4 0.00 0.10 0.10 86 1016.5
20260904080502 17 22 3.2 3.2 0.00 0.10 0.10 86 1016.4
20260904075950 17 359 3.2 3.2 0.00 0.10 0.10 87 1016.5
20260904075437 17 18 3.2 3.2 0.00 0.10 0.10 89 1016.2
20260904074925 17 36 3.2 3.2 0.00 0.10 0.10 90 1016.3
20260904074413 17 36 1.6 1.6 0.00 0.10 0.10 91 1016.2
20260904073900 17 18 0.0 0.0 0.00 0.10 0.10 91 1016.2
20260904073347 17 34 3.2 3.2 0.00 0.10 0.10 91 1016.2
20260904072835 17 24 0.0 0.0 0.00 0.10 0.10 91 1016.1
20260904072322 17 354 1.6 1.6 0.00 0.10 0.10 91 1016.2
20260904071810 17 21 0.0 0.0 0.00 0.10 0.10 91 1016.3
20260904071257 17 22 1.6 1.6 0.00 0.10 0.10 90 1016.0
20260904070745 17 40 3.2 3.2 0.00 0.10 0.10 91 1016.0
20260904065207 16 308 3.2 3.2 0.00 0.10 0.10 91 1015.8
20260904064655 16 48 1.6 1.6 0.00 0.10 0.10 92 1015.7
20260904064142 16 15 0.0 0.0 0.03 0.10 0.10 92 1015.7
20260904063630 16 46 6.4 6.4 0.08 0.10 0.10 92 1015.5
20260904063117 16 24 3.2 3.2 0.10 0.10 0.10 91 1015.7
20260904062605 17 354 3.2 3.2 0.10 0.10 0.10 91 1015.6
20260904062052 17 48 3.2 3.2 0.10 0.10 0.10 91 1015.5
20260904061540 17 12 6.4 6.4 0.10 0.10 0.10 91 1015.4
20260904061027 17 72 6.4 6.4 0.10 0.10 0.10 91 1015.2
20260904060515 17 24 3.2 3.2 0.10 0.10 0.10 91 1015.1
20260904060002 16 48 3.2 3.2 0.10 0.10 0.10 91 1015.0
20260904055450 16 354 6.4 6.4 0.10 0.10 0.10 92 1015.0
20260904054937 16 0 4.8 4.8 0.10 0.10 0.10 93 1015.0
20260904054425 16 18 6.4 6.4 0.10 0.10 0.10 93 1015.1
20260904053912 16 78 6.4 8.0 0.08 0.08 0.08 92 1015.0
20260904053400 17 12 6.4 6.4 0.03 0.03 0.03 91 1014.9
20260904052847 17 348 6.4 6.4 0.00 0.00 0.00 90 1014.7
20260904052335 18 339 6.4 6.4 0.00 0.00 0.00 90 1014.6
20260904051822 19 36 3.2 3.2 0.00 0.00 0.00 91 1014.3
20260904051310 19 159 3.2 3.2 0.00 0.00 0.00 90 1014.1
20260904050757 19 90 8.0 8.0 0.00 0.00 0.00 90 1014.2
20260904050245 19 249 8.0 8.0 0.00 0.00 0.00 89 1014.1
20260904045732 19 197 9.7 9.7 0.00 0.00 0.00 89 1014.0
20260904045220 19 165 6.4 6.4 0.00 0.00 0.00 88 1014.0
20260904044707 19 65 3.2 3.2 0.00 0.00 0.00 88 1014.0
20260904044154 20 234 3.2 3.2 0.00 0.00 0.00 87 1014.1
20260904043642 20 129 9.7 11.3 0.00 0.00 0.00 87 1014.1
20260904043129 19 132 9.7 9.7 0.00 0.00 0.00 87 1014.0
20260904042617 19 210 1.6 1.6 0.00 0.00 0.00 88 1014.1
20260904042104 19 217 6.4 6.4 0.00 0.00 0.00 88 1014.0
20260904041552 19 204 1.6 1.6 0.00 0.00 0.00 89 1014.2
20260904041040 19 223 0.0 0.0 0.00 0.00 0.00 88 1014.1
20260904040527 20 178 3.2 3.2 0.00 0.00 0.00 87 1014.2
20260904040014 20 252 8.0 9.7 0.00 0.00 0.00 86 1014.3
20260904035502 20 195 8.0 8.0 0.00 0.00 0.00 85 1014.3
20260904034950 20 36 4.8 4.8 0.00 0.00 0.00 85 1014.4
20260904034437 20 235 8.0 8.0 0.00 0.00 0.00 85 1014.1
20260904033924 20 132 3.2 3.2 0.00 0.00 0.00 85 1014.0
20260904033412 20 219 3.2 3.2 0.00 0.00 0.00 85 1014.2
20260904032859 20 255 17.7 19.3 0.00 0.00 0.00 85 1014.2
20260904032347 20 180 6.4 6.4 0.00 0.00 0.00 85 1014.3
20260904031834 20 192 3.2 3.2 0.00 0.00 0.00 85 1014.4
20260904031322 20 136 6.4 8.0 0.00 0.00 0.00 86 1014.4
20260904030809 20 159 1.6 1.6 0.00 0.00 0.00 86 1014.4
20260904030257 20 243 8.0 8.0 0.00 0.00 0.00 85 1014.4
20260904025744 20 220 11.3 12.9 0.00 0.00 0.00 85 1014.6
20260904025231 20 94 6.4 6.4 0.00 0.00 0.00 86 1014.5
20260904024719 20 240 6.4 6.4 0.00 0.00 0.00 86 1014.6
20260904024206 20 195 6.4 8.0 0.00 0.00 0.00 86 1014.7
20260904023654 20 174 6.4 8.0 0.00 0.00 0.00 86 1014.9
20260904023141 20 217 6.4 6.4 0.00 0.00 0.00 86 1015.2
20260904022628 20 217 6.4 6.4 0.00 0.00 0.00 87 1015.1
20260904021615 20 72 4.8 4.8 0.00 0.00 0.00 86 1015.2
20260904021103 20 174 8.0 8.0 0.00 0.00 0.00 87 1015.3
20260904020550 20 169 3.2 3.2 0.00 0.00 0.00 87 1015.3
20260904020037 19 51 3.2 3.2 0.00 0.00 0.00 87 1015.4
20260904015525 19 203 6.4 6.4 0.00 0.00 0.00 87 1015.4
20260904015013 19 234 6.4 6.4 0.00 0.00 0.00 87 1015.4
20260904014500 20 170 1.6 1.6 0.00 0.00 0.00 87 1015.5
20260904013947 20 229 9.7 11.3 0.00 0.00 0.00 87 1015.5
20260904013435 19 232 6.4 8.0 0.00 0.00 0.00 86 1015.6
20260904012922 19 204 6.4 6.4 0.00 0.00 0.00 86 1015.4
20260904012410 20 246 8.0 8.0 0.00 0.00 0.00 85 1015.4
20260904011857 20 178 6.4 6.4 0.00 0.00 0.00 85 1015.8
20260904011344 20 141 6.4 6.4 0.00 0.00 0.00 85 1015.6
20260904010832 19 222 3.2 3.2 0.00 0.00 0.00 85 1015.5
20260904010319 19 210 4.8 4.8 0.00 0.00 0.00 85 1015.6
20260904005807 19 0 4.8 4.8 0.00 0.00 0.00 85 1015.6
20260904005254 19 231 6.4 6.4 0.00 0.00 0.00 85 1015.6
20260904004742 19 162 3.2 3.2 0.00 0.00 0.00 85 1015.8
20260904004229 20 211 1.6 1.6 0.00 0.00 0.00 84 1015.9
20260904003717 20 228 6.4 8.0 0.00 0.00 0.00 84 1015.9
20260904003204 20 78 8.0 9.7 0.00 0.00 0.00 84 1016.0
20260904002652 20 240 6.4 6.4 0.00 0.00 0.00 83 1016.1
20260904002139 20 243 3.2 3.2 0.00 0.00 0.00 82 1016.0
20260904001627 20 251 6.4 6.4 0.00 0.00 0.00 82 1016.2
20260904001114 20 233 6.4 6.4 0.00 0.00 0.00 81 1016.3
20260904000602 20 203 3.2 3.2 0.00 0.00 0.00 81 1016.3
20260904000049 20 238 3.2 3.2 0.00 0.00 0.00 80 1016.2
20260903235537 20 210 3.2 3.2 0.00 0.00 0.00 80 1016.4
20260903235024 20 189 1.6 1.6 0.00 0.00 0.00 79 1016.5
20260903234512 20 222 3.2 3.2 0.00 0.00 0.00 79 1016.6
20260903233959 20 228 0.0 0.0 0.00 0.00 0.00 79 1016.6
20260903233447 20 232 6.4 6.4 0.00 0.00 0.00 79 1016.7
20260903232934 20 223 0.0 0.0 0.00 0.00 0.00 79 1016.7
20260903232422 20 179 1.6 1.6 0.00 0.00 0.00 79 1016.7
20260903231909 19 240 6.4 6.4 0.00 0.00 0.00 79 1016.7